�������l�o���
Date,Time,MP-1(��Sv/h),MP-2(��Sv/h),MP-3(��Sv/h),MP-4(��Sv/h),MP-5(��Sv/h),MP-6(��Sv/h),MP-7(��Sv/h),MP-8(��Sv/h),����,����(m/s),���J
2019/08/01,00:00,0.740,1.050,0.717,1.271,0.926,0.428,0.737,0.698,���쐼,1.2,��
2019/08/01,00:10,0.742,1.051,0.716,1.270,0.930,0.428,0.737,0.698,��,1.1,��
2019/08/01,00:20,0.740,1.053,0.717,1.272,0.927,0.428,0.736,0.698,-,CALM,��
2019/08/01,00:30,0.740,1.052,0.717,1.272,0.925,0.427,0.737,0.697,�쐼,0.6,��
2019/08/01,00:40,0.740,1.048,0.717,1.272,0.928,0.428,0.737,0.698,��,1.2,��
2019/08/01,00:50,0.738,1.054,0.719,1.270,0.928,0.427,0.737,0.698,��,1.9,��
2019/08/01,01:00,0.741,1.049,0.716,1.270,0.925,0.427,0.737,0.697,��쓌,1.2,��
2019/08/01,01:10,0.740,1.052,0.714,1.272,0.928,0.427,0.739,0.698,��,2.0,��
2019/08/01,01:20,0.740,1.053,0.716,1.271,0.927,0.428,0.736,0.697,�쐼,2.0,��
2019/08/01,01:30,0.742,1.049,0.717,1.273,0.929,0.427,0.735,0.698,�쐼,2.6,��
2019/08/01,01:40,0.739,1.052,0.716,1.270,0.925,0.428,0.736,0.696,��쐼,1.5,��
2019/08/01,01:50,0.741,1.052,0.718,1.272,0.926,0.428,0.737,0.699,��쐼,1.5,��
2019/08/01,02:00,0.740,1.051,0.715,1.272,0.928,0.427,0.735,0.698,��쓌,0.9,��
2019/08/01,02:10,0.738,1.052,0.716,1.270,0.926,0.426,0.738,0.696,��쓌,1.2,��
2019/08/01,02:20,0.740,1.051,0.716,1.273,0.928,0.428,0.736,0.698,�쓌,1.1,��
2019/08/01,02:30,0.740,1.047,0.718,1.273,0.927,0.427,0.736,0.697,��쓌,0.8,��
2019/08/01,02:40,0.740,1.051,0.715,1.273,0.927,0.427,0.736,0.697,�쓌,0.6,��
2019/08/01,02:50,0.739,1.050,0.716,1.271,0.926,0.427,0.737,0.697,-,CALM,��
2019/08/01,03:00,0.740,1.051,0.716,1.272,0.926,0.427,0.738,0.699,�k�k��,1.5,��
2019/08/01,03:10,0.739,1.051,0.716,1.273,0.928,0.426,0.737,0.696,�k�k��,2.3,��
2019/08/01,03:20,0.739,1.050,0.715,1.272,0.925,0.427,0.737,0.697,�k�k��,2.0,��
2019/08/01,03:30,0.741,1.051,0.714,1.275,0.927,0.428,0.736,0.699,�k��,1.5,��
2019/08/01,03:40,0.740,1.050,0.715,1.274,0.926,0.428,0.734,0.697,�k�k��,2.3,��
2019/08/01,03:50,0.738,1.049,0.715,1.270,0.925,0.428,0.735,0.697,�k�k��,3.3,��
2019/08/01,04:00,0.739,1.051,0.716,1.272,0.927,0.427,0.736,0.697,�k�k��,3.2,��
2019/08/01,04:10,0.741,1.051,0.717,1.273,0.925,0.427,0.736,0.698,�k,2.8,��
2019/08/01,04:20,0.739,1.051,0.716,1.271,0.927,0.428,0.736,0.698,�k��,2.3,��
2019/08/01,04:30,0.739,1.050,0.715,1.270,0.927,0.427,0.737,0.697,�k��,2.2,��
2019/08/01,04:40,0.739,1.050,0.716,1.273,0.928,0.427,0.737,0.697,�k��,3.4,��
2019/08/01,04:50,0.739,1.051,0.717,1.273,0.925,0.427,0.737,0.698,�k�k��,2.3,��
2019/08/01,05:00,0.739,1.050,0.717,1.274,0.923,0.428,0.736,0.697,�k�k��,1.5,��
2019/08/01,05:10,0.740,1.050,0.715,1.274,0.926,0.428,0.738,0.698,�k��,1.2,��
2019/08/01,05:20,0.739,1.048,0.716,1.273,0.925,0.429,0.735,0.698,�k��,1.5,��
2019/08/01,05:30,0.741,1.050,0.714,1.272,0.925,0.428,0.735,0.697,�k��,2.0,��
2019/08/01,05:40,0.740,1.051,0.716,1.273,0.928,0.428,0.735,0.698,�k��,3.1,��
2019/08/01,05:50,0.740,1.050,0.717,1.272,0.927,0.427,0.736,0.697,�k��,1.7,��
2019/08/01,06:00,0.737,1.051,0.716,1.271,0.926,0.427,0.736,0.696,���k��,0.9,��
2019/08/01,06:10,0.738,1.049,0.715,1.269,0.925,0.428,0.735,0.698,�k��,1.4,��
2019/08/01,06:20,0.739,1.054,0.716,1.273,0.926,0.427,0.735,0.695,���k��,1.5,��
2019/08/01,06:30,0.739,1.052,0.716,1.271,0.925,0.428,0.736,0.697,���k��,0.6,��
2019/08/01,06:40,0.739,1.051,0.716,1.273,0.925,0.428,0.738,0.696,��,0.9,��
2019/08/01,06:50,0.740,1.051,0.716,1.276,0.927,0.428,0.736,0.696,-,CALM,��
2019/08/01,07:00,0.741,1.051,0.716,1.270,0.927,0.427,0.737,0.696,��쐼,0.9,��
2019/08/01,07:10,0.740,1.049,0.717,1.272,0.928,0.428,0.736,0.696,��,2.3,��
2019/08/01,07:20,0.741,1.048,0.716,1.272,0.927,0.427,0.736,0.697,��,2.0,��
2019/08/01,07:30,0.739,1.049,0.715,1.273,0.924,0.428,0.737,0.699,��,2.9,��
2019/08/01,07:40,0.741,1.049,0.714,1.273,0.925,0.428,0.736,0.698,��,2.5,��
2019/08/01,07:50,0.740,1.048,0.714,1.273,0.928,0.427,0.739,0.699,��쓌,2.6,��
2019/08/01,08:00,0.739,1.050,0.715,1.274,0.925,0.426,0.739,0.699,��쓌,3.1,��
2019/08/01,08:10,0.739,1.051,0.717,1.273,0.928,0.426,0.738,0.697,��,2.6,��
2019/08/01,08:20,0.739,1.045,0.714,1.270,0.925,0.426,0.738,0.700,��쓌,3.6,��
2019/08/01,08:30,0.739,1.046,0.713,1.272,0.925,0.427,0.737,0.698,��쓌,4.0,��
2019/08/01,08:40,0.739,1.046,0.715,1.274,0.927,0.427,0.736,0.696,��쓌,3.9,��
2019/08/01,08:50,0.741,1.045,0.714,1.270,0.929,0.427,0.738,0.696,��쓌,4.1,��
2019/08/01,09:00,0.739,1.049,0.713,1.272,0.928,0.427,0.739,0.696,�쓌,3.9,��
2019/08/01,09:10,0.741,1.049,0.714,1.272,0.928,0.426,0.737,0.696,��쓌,3.9,��
2019/08/01,09:20,0.740,1.049,0.715,1.273,0.928,0.426,0.738,0.695,��쓌,4.0,��
2019/08/01,09:30,0.737,1.049,0.715,1.275,0.926,0.426,0.738,0.696,�쓌,4.2,��
2019/08/01,09:40,0.741,1.050,0.715,1.275,0.929,0.424,0.738,0.697,�쓌,3.2,��
2019/08/01,09:50,0.741,1.049,0.714,1.274,0.928,0.426,0.738,0.696,�쓌,3.8,��
2019/08/01,10:00,0.743,1.051,0.715,1.275,0.928,0.426,0.736,0.696,�쓌,3.5,��
2019/08/01,10:10,0.742,1.049,0.714,1.271,0.930,0.426,0.738,0.696,�쓌,3.4,��
2019/08/01,10:20,0.740,1.050,0.717,1.276,0.931,0.427,0.735,0.697,��쓌,4.3,��
2019/08/01,10:30,0.740,1.050,0.716,1.276,0.929,0.426,0.737,0.695,��쓌,4.7,��
2019/08/01,10:40,0.743,1.054,0.715,1.275,0.931,0.426,0.737,0.698,�쓌,5.0,��
2019/08/01,10:50,0.742,1.054,0.716,1.276,0.930,0.428,0.738,0.697,�쓌,4.1,��
2019/08/01,11:00,0.742,1.052,0.716,1.276,0.930,0.428,0.738,0.697,��쓌,5.0,��
2019/08/01,11:10,0.742,1.058,0.715,1.271,0.932,0.427,0.739,0.699,��쓌,5.2,��
2019/08/01,11:20,0.744,1.056,0.717,1.272,0.931,0.429,0.737,0.697,��쓌,5.1,��
2019/08/01,11:30,0.744,1.057,0.720,1.274,0.933,0.428,0.738,0.698,��쓌,5.4,��
2019/08/01,11:40,0.744,1.056,0.720,1.274,0.934,0.429,0.738,0.700,��,4.8,��
2019/08/01,11:50,0.745,1.057,0.722,1.275,0.933,0.428,0.738,0.700,��쓌,5.8,��
2019/08/01,12:00,0.746,1.059,0.722,1.275,0.935,0.431,0.738,0.700,��쓌,5.7,��
2019/08/01,12:10,0.745,1.060,0.723,1.276,0.935,0.429,0.740,0.701,��쓌,6.7,��
2019/08/01,12:20,0.744,1.061,0.722,1.276,0.936,0.429,0.738,0.700,��쓌,5.9,��
2019/08/01,12:30,0.746,1.061,0.723,1.275,0.936,0.430,0.741,0.701,��쓌,6.0,��
2019/08/01,12:40,0.745,1.061,0.723,1.279,0.934,0.429,0.738,0.700,��쓌,6.1,��
2019/08/01,12:50,0.746,1.059,0.723,1.276,0.936,0.429,0.739,0.701,��쓌,6.4,��
2019/08/01,13:00,0.747,1.058,0.724,1.276,0.939,0.429,0.740,0.701,��쓌,5.6,��
2019/08/01,13:10,0.746,1.057,0.722,1.278,0.937,0.428,0.742,0.701,��쓌,7.2,��
2019/08/01,13:20,0.747,1.058,0.723,1.279,0.938,0.430,0.739,0.701,��,6.6,��
2019/08/01,13:30,0.747,1.059,0.722,1.280,0.937,0.429,0.742,0.701,��쓌,7.0,��
2019/08/01,13:40,0.747,1.061,0.724,1.277,0.938,0.428,0.742,0.701,��쓌,5.3,��
2019/08/01,13:50,0.747,1.061,0.724,1.278,0.939,0.429,0.744,0.701,��쓌,6.5,��
2019/08/01,14:00,0.748,1.061,0.724,1.280,0.937,0.429,0.745,0.701,��쓌,6.3,��
2019/08/01,14:10,0.749,1.062,0.724,1.280,0.939,0.429,0.743,0.702,��쓌,6.4,��
2019/08/01,14:20,0.750,1.064,0.727,1.280,0.943,0.429,0.742,0.704,��쓌,6.1,��
2019/08/01,14:30,0.751,1.062,0.724,1.281,0.942,0.429,0.744,0.700,��,6.5,��
2019/08/01,14:40,0.750,1.062,0.726,1.280,0.939,0.428,0.742,0.702,��,6.2,��
2019/08/01,14:50,0.751,1.063,0.725,1.282,0.943,0.429,0.742,0.701,��,6.5,��
2019/08/01,15:00,0.750,1.061,0.726,1.281,0.943,0.429,0.741,0.700,��,5.9,��
2019/08/01,15:10,0.752,1.066,0.727,1.285,0.942,0.429,0.742,0.701,��,6.1,��
2019/08/01,15:20,0.749,1.064,0.726,1.283,0.943,0.430,0.745,0.700,��,5.6,��
2019/08/01,15:30,0.752,1.061,0.726,1.285,0.943,0.429,0.743,0.700,��,6.3,��
2019/08/01,15:40,0.751,1.064,0.725,1.285,0.942,0.430,0.744,0.700,��,6.7,��
2019/08/01,15:50,0.751,1.067,0.730,1.285,0.943,0.429,0.744,0.700,��,6.7,��
2019/08/01,16:00,0.750,1.067,0.728,1.285,0.944,0.429,0.744,0.698,��,7.1,��
2019/08/01,16:10,0.751,1.066,0.728,1.286,0.945,0.429,0.742,0.700,��,6.1,��
2019/08/01,16:20,0.751,1.065,0.726,1.286,0.945,0.428,0.742,0.699,��쓌,6.1,��
2019/08/01,16:30,0.752,1.066,0.728,1.289,0.943,0.429,0.740,0.699,��쓌,7.1,��
2019/08/01,16:40,0.752,1.067,0.727,1.284,0.943,0.430,0.741,0.701,��쓌,7.2,��
2019/08/01,16:50,0.750,1.069,0.726,1.285,0.942,0.427,0.741,0.700,��쓌,7.5,��
2019/08/01,17:00,0.750,1.067,0.727,1.286,0.944,0.428,0.740,0.698,��쓌,6.7,��
2019/08/01,17:10,0.751,1.066,0.726,1.286,0.942,0.427,0.741,0.701,��쓌,6.5,��
2019/08/01,17:20,0.750,1.067,0.727,1.285,0.942,0.428,0.742,0.698,��쓌,8.3,��
2019/08/01,17:30,0.749,1.067,0.726,1.282,0.940,0.427,0.739,0.698,��쓌,9.9,��
2019/08/01,17:40,0.748,1.066,0.725,1.284,0.942,0.428,0.740,0.701,-,CALM,��
2019/08/01,17:50,0.748,1.067,0.724,1.283,0.940,0.427,0.738,0.699,��,8.2,��
2019/08/01,18:00,0.748,1.069,0.727,1.283,0.941,0.425,0.739,0.699,��,8.5,��
2019/08/01,18:10,0.748,1.067,0.725,1.282,0.941,0.425,0.740,0.700,��,6.3,��
2019/08/01,18:20,0.747,1.064,0.725,1.282,0.939,0.427,0.739,0.699,��,5.7,��
2019/08/01,18:30,0.746,1.067,0.727,1.283,0.943,0.428,0.738,0.699,��,4.3,��
2019/08/01,18:40,0.747,1.066,0.725,1.282,0.942,0.427,0.741,0.698,��쐼,3.9,��
2019/08/01,18:50,0.749,1.066,0.726,1.283,0.940,0.428,0.739,0.700,��쐼,2.9,��
2019/08/01,19:00,0.747,1.067,0.725,1.285,0.940,0.428,0.739,0.699,��쐼,3.1,��
2019/08/01,19:10,0.749,1.066,0.725,1.286,0.942,0.428,0.738,0.700,�쐼,2.5,��
2019/08/01,19:20,0.748,1.065,0.725,1.284,0.942,0.428,0.739,0.700,��쐼,2.6,��
2019/08/01,19:30,0.748,1.068,0.726,1.283,0.941,0.427,0.740,0.699,��쐼,3.4,��
2019/08/01,19:40,0.748,1.064,0.726,1.285,0.942,0.429,0.739,0.699,��쐼,3.3,��
2019/08/01,19:50,0.749,1.066,0.726,1.286,0.942,0.429,0.740,0.699,�쐼,3.9,��
2019/08/01,20:00,0.750,1.068,0.727,1.284,0.943,0.427,0.741,0.701,�쐼,3.5,��
2019/08/01,20:10,0.749,1.067,0.726,1.285,0.942,0.429,0.741,0.700,�쐼,3.0,��
2019/08/01,20:20,0.750,1.067,0.726,1.284,0.944,0.428,0.741,0.700,�쐼,3.0,��
2019/08/01,20:30,0.747,1.067,0.728,1.285,0.943,0.429,0.740,0.700,��,3.2,��
2019/08/01,20:40,0.750,1.069,0.729,1.282,0.942,0.428,0.743,0.699,��,1.5,��
2019/08/01,20:50,0.748,1.068,0.728,1.281,0.940,0.430,0.739,0.701,��,2.0,��
2019/08/01,21:00,0.750,1.069,0.730,1.285,0.942,0.430,0.740,0.702,���k��,2.8,��
2019/08/01,21:10,0.749,1.066,0.727,1.284,0.942,0.431,0.741,0.700,��,2.9,��
2019/08/01,21:20,0.749,1.067,0.726,1.288,0.944,0.429,0.742,0.701,��,2.9,��
2019/08/01,21:30,0.748,1.068,0.728,1.286,0.942,0.429,0.740,0.700,���쐼,3.1,��
2019/08/01,21:40,0.751,1.068,0.724,1.286,0.940,0.429,0.742,0.700,���쐼,2.9,��
2019/08/01,21:50,0.749,1.067,0.727,1.285,0.942,0.430,0.740,0.700,���쐼,2.8,��
2019/08/01,22:00,0.748,1.068,0.727,1.285,0.940,0.428,0.740,0.702,��,3.3,��
2019/08/01,22:10,0.748,1.067,0.727,1.282,0.942,0.429,0.739,0.701,��,3.8,��
2019/08/01,22:20,0.748,1.069,0.727,1.286,0.942,0.430,0.742,0.700,��,4.3,��
2019/08/01,22:30,0.749,1.068,0.728,1.285,0.944,0.428,0.739,0.700,��,3.8,��
2019/08/01,22:40,0.750,1.068,0.726,1.286,0.942,0.430,0.740,0.701,��,4.7,��
2019/08/01,22:50,0.748,1.067,0.726,1.283,0.940,0.430,0.741,0.700,���k��,4.4,��
2019/08/01,23:00,0.748,1.069,0.727,1.284,0.941,0.429,0.741,0.700,��,3.6,��
2019/08/01,23:10,0.748,1.065,0.726,1.285,0.941,0.428,0.739,0.700,���k��,4.6,��
2019/08/01,23:20,0.749,1.066,0.726,1.281,0.943,0.430,0.741,0.701,���k��,4.3,��
2019/08/01,23:30,0.750,1.066,0.725,1.283,0.941,0.430,0.741,0.701,��,3.3,��
2019/08/01,23:40,0.748,1.069,0.728,1.284,0.941,0.430,0.742,0.702,���k��,2.3,��
2019/08/01,23:50,0.748,1.069,0.728,1.285,0.941,0.430,0.742,0.701,��,2.6,��
